STARLINK-36308, 68543

Orbit data source: Space-Track

STARLINK-36308, 68543 is a payload satellite owned by SpaceX/Seattle (US) in LEO that was launched on Thu, 02 Apr 2026 UTC via an FALCON 9 launch vehicle from the Air Force Eastern Test Range (AFETR). Payload-class satellites include a variety of spacecraft equipped with specific instruments for various scientific and technological missions. These include communications satellites like Starlink; space stations such as the ISS; scientific satellites like the Hubble; Earth observation satellites from companies like Planet Labs, Umbra, and HawkEye 360; GPS; miniature CubeSats for education and research; and military/defense satellites.

Loading next visibility...
Identifier
68543, 2026-070B
Orbit
LEO
Country
Flag of USUS
Related business
Manufacturer
SpaceX/Seattle
Mission
Operational spacecraft
Bus & Motor
STARLINK V2MO, Unknown motor
Mass
575 kg wet, ~530 kg dry
Launch date (UTC)
2026-04-02 (2 months ago)
Launch vehicle
FALCON 9
Launch site
Air Force Eastern Test Range (AFETR)
Object type
Payload
Rocket body
Debris
Shape & HBR
Unknown shape, 14.5 m
Radar Cross Section
RCS unknown

Expand to show TLE details & history
Last TLE update: 4 hours ago

TLE from 4 hours ago
0 STARLINK-36308
1 68543U 26070B   26138.83335647 -.00019203  00000-0 -55855-3 0  9998
2 68543  53.1595  36.7625 0000783 100.3394 282.5446 15.34406535  6017
Epoch: 2026-05-18T20:00Z
TLE epoch observation values (Epoch: 2026-05-18T20:00:01.999Z)
Latitude
18.1574°
Longitude
-125.6186°
Altitude
462.905 km
Speed
7.638 km/s
True Right ascension
03h 23m 37s
True Declination
18° 03' 05"
Sunlit
Object was in daylight at epoch
Visualization orbit readout
Latitude
Unknown
Longitude
Unknown
Altitude
Unknown
Speed
Unknown
Apparent Right ascension
Unknown
Apparent Declination
Unknown
Sunlit
N/A
Visualization observer readout
Local Sidereal Time
09:07:19
Azimuth
Unknown
Elevation
Unknown
Doppler factor
Unknown
Orbital elements
Apogee altitude
463.476 km
Perigee altitude
462.405 km
Semi-major axis
6,841.078 km
Eccentricity
0.00008
Inclination
53.1595°
RAAN
36.7625°
Arg. of periapsis
100.3394°
True anomaly
282.53584°
Mean anomaly
282.5446°
Eccentric anomaly
282.54022°
Mean motion
3.8358 °/min
Orbital period
93.85 mins
BSTAR
-0.00055855
Loading maneuver chart data...
Computing Atmospheric mass density...
Loading historical data...
Loading historical data...
Loading historical data...
Loading historical data...
Loading historical data...
Loading historical data...
Loading historical data...

Documentation

Showing up to 5 results
|